Location: Suzhou
(31.3110°N, 120.6180°E)
Time: 17:13:57
(UTC+08:00)

NOAA 15 - Pass Details

Date: 23 May 2024
Orbit: 796 x 810 km, 98.6° (Epoch: 13 June)

Event Time Altitude Azimuth Distance (km) Brightness Sun altitude
Rises 19:29:59 0° 187° (S) 3,286 7.5 -8.0°
Reaches altitude 10° 19:32:29 10° 196° (SSW) 2,358 6.9 -8.5°
Maximum altitude 19:37:14 36° 262° (W) 1,251 6.2 -9.4°
Drops below altitude 10° 19:42:00 10° 328° (NNW) 2,369 8.2 -10.2°
Sets 19:44:32 0° 337° (NNW) 3,302 8.8 -10.7°
